• Join FlightAware (Why Join?)
  • Login
  • US Flag 
Rudolph Flight #1: Arrived! 
03:01AM EST


 

Airport Tracker/Info


-or-


 

Live Flight TrackerFlight Track Log ✈ UPS1075 ✈ 20-Jun-2013 ✈ KEWR - KRFD

Flight Track Log - Related Links

Times and Time Zones

All times are in EDT time to prevent confusion due to time zone crossing. See the UPS1075 flight status page for this flight to view local times or setup timezone preferences in your user account.

Time Position Orientation Groundspeed Altitude Reporting Facility
EDT Latitude Longitude Course Direction KTS MPH feet Rate Location/Type
10:52PM 40.6931 -74.1682 210° Southwest 124 143  Level FlightAware ADS-B
10:52PM 40.6801 -74.1761 205° Southwest 148 170 2,280 Level FlightAware ADS-B
10:53PM 40.6730 -74.1783 193° South 151 174 3,000 Level FlightAware ADS-B
10:53PM 40.6706 -74.1784 182° South 166 191 3,660 Level FlightAware ADS-B
10:53PM 40.6660 -74.1782 178° South 174 200 3,900 Level FlightAware ADS-B
10:53PM 40.6521 -74.1762 174° South 199 229 4,440 Level FlightAware ADS-B
10:53PM 40.6491 -74.1760 177° South 201 231 7,080 Level FlightAware ADS-B
10:53PM 40.6433 -74.1766 184° South 201 231 7,980 Level FlightAware ADS-B
10:53PM 40.6338 -74.1806 198° South 204 235 11,280 Level FlightAware ADS-B
10:53PM 40.6284 -74.1854 214° Southwest 205 236 3,200 10,320 Climbing FlightAware ADS-B
10:54PM 40.6217 -74.2003 239° Southwest 219 252 3,800 1,860 Climbing FlightAware ADS-B
10:54PM 40.6205 -74.2048 251° West 222 255 3,800 1,380 Level FlightAware ADS-B
10:54PM 40.6192 -74.2170 262° West 236 272 4,100 1,800 Climbing FlightAware ADS-B
10:54PM 40.6194 -74.2231 272° West 240 276 4,200 1,980 Climbing FlightAware ADS-B
10:54PM 40.6196 -74.2255 276° West 241 277 4,300 2,640 Climbing FlightAware ADS-B
10:54PM 40.6208 -74.2369 278° West 247 284 4,600 2,700 Climbing FlightAware ADS-B
10:54PM 40.6218 -74.2429 282° West 250 288 4,800 2,400 Climbing FlightAware ADS-B
10:54PM 40.6220 -74.2437 288° West 249 287 4,800 3,000 Level FlightAware ADS-B
10:54PM 40.6232 -74.2484 289° West 252 290 5,000 3,000 Climbing FlightAware ADS-B
10:54PM 40.6234 -74.2491 291° West 252 290 5,000 1,500 Level FlightAware ADS-B
10:54PM 40.6252 -74.2538 297° West 255 293 5,100 3,000 Climbing FlightAware ADS-B
10:54PM 40.6271 -74.2582 300° West 255 293 5,300 3,000 Climbing FlightAware ADS-B
10:54PM 40.6289 -74.2612 308° West 256 295 5,400 3,000 Climbing FlightAware ADS-B
10:54PM 40.6300 -74.2629 310° West 255 293 5,500 4,500 Climbing FlightAware ADS-B
10:55PM 40.6328 -74.2664 317° Northwest 253 291 5,700 4,500 Climbing FlightAware ADS-B
10:55PM 40.6337 -74.2677 312° West 253 291 5,800 3,600 Climbing FlightAware ADS-B
10:55PM 40.6365 -74.2708 320° Northwest 253 291 6,000 3,000 Climbing FlightAware ADS-B
10:55PM 40.6389 -74.2730 325° Northwest 254 292 6,100 3,000 Climbing FlightAware ADS-B
10:55PM 40.6447 -74.2783 325° Northwest 258 297 6,400 2,400 Climbing FlightAware ADS-B
10:55PM 40.6490 -74.2819 328° Northwest 263 303 6,500 2,460 Climbing FlightAware ADS-B
10:55PM 40.6577 -74.2885 330° Northwest 270 311 6,900 2,700 Climbing FlightAware ADS-B
10:55PM 40.6603 -74.2904 331° Northwest 271 312 7,000 2,520 Climbing FlightAware ADS-B
10:55PM 40.6650 -74.2939 331° Northwest 272 313 7,200 3,000 Climbing FlightAware ADS-B
10:55PM 40.6758 -74.3021 330° Northwest 277 319 7,700 2,820 Climbing FlightAware ADS-B
10:55PM 40.6908 -74.3146 328° Northwest 282 325 8,300 3,000 Climbing FlightAware ADS-B
10:56PM 40.7049 -74.3271 326° Northwest 287 330 9,000 3,120 Climbing FlightAware ADS-B
10:56PM 40.7177 -74.3382 327° Northwest 288 331 9,600 3,180 Climbing FlightAware ADS-B
10:56PM 40.7217 -74.3414 329° Northwest 288 331 9,800 1,980 Climbing FlightAware ADS-B
10:56PM 40.7392 -74.3561 328° Northwest 302 348 10,200 1,620 Climbing FlightAware ADS-B
10:56PM 40.7472 -74.3632 326° Northwest 308 354 10,400 1,500 Climbing FlightAware ADS-B
10:57PM 40.7759 -74.3892 326° Northwest 334 384 11,000 1,380 Climbing FlightAware ADS-B
10:57PM 40.8009 -74.4124 325° Northwest 325 374 11,400 1,560 Climbing FlightAware ADS-B
10:57PM 40.8170 -74.4244 331° Northwest 357 411 11,800 2,460 Climbing FlightAware ADS-B
10:58PM 40.8596 -74.4614 327° Northwest 362 417 13,200 2,700 Climbing FlightAware ADS-B
10:58PM 40.8886 -74.4863 327° Northwest 362 417 14,100 2,460 Climbing FlightAware ADS-B
10:58PM 40.9031 -74.4985 328° Northwest 366 421 14,500 2,400 Climbing FlightAware ADS-B
10:59PM 40.9318 -74.5215 329° Northwest 369 425 15,300 1,440 Climbing FlightAware ADS-B
10:59PM 40.9755 -74.5579 328° Northwest 368 423 15,700 480 Climbing FlightAware ADS-B
11:00PM 41.0201 -74.5953 328° Northwest 369 425 15,800 1,320 Climbing FlightAware ADS-B
11:00PM 41.0622 -74.6324 326° Northwest 365 420 17,100 2,160 Climbing FlightAware ADS-B
11:01PM 41.1072 -74.6693 328° Northwest 376 433 18,000 1,860 Climbing FlightAware ADS-B
11:01PM 41.1231 -74.6824 328° Northwest 378 435 18,400 1,980 Climbing FlightAware ADS-B
11:01PM 41.1375 -74.6977 321° Northwest 379 436 18,700 1,620 Climbing FlightAware ADS-B
11:01PM 41.1454 -74.7102 310° West 377 434 18,900 2,340 Climbing FlightAware ADS-B
11:01PM 41.1591 -74.7423 300° West 376 433 19,600 2,160 Climbing FlightAware ADS-B
11:02PM 41.1840 -74.8046 298° West 380 437 20,600 1,740 Climbing FlightAware ADS-B
11:02PM 41.2113 -74.8660 301° West 387 445 21,400 1,620 Climbing FlightAware ADS-B
11:03PM 41.2397 -74.9285 301° West 390 449 22,300 1,740 Climbing FlightAware ADS-B
11:03PM 41.2675 -74.9942 299° West 397 457 23,200 1,620 Climbing FlightAware ADS-B
11:04PM 41.2960 -75.0603 300° West 400 460 24,000 1,500 Climbing FlightAware ADS-B
11:04PM 41.3254 -75.1295 300° West 403 464 24,800 1,440 Climbing FlightAware ADS-B
11:05PM 41.3548 -75.1979 300° West 410 472 25,500 1,560 Climbing FlightAware ADS-B
11:05PM 41.3831 -75.2603 301° West 413 475 26,400 1,620 Climbing FlightAware ADS-B
11:06PM 41.4117 -75.3310 298° West 418 481 27,200 1,440 Climbing FlightAware ADS-B
11:06PM 41.4401 -75.3992 299° West 424 488 27,900 1,440 Climbing FlightAware ADS-B
11:07PM 41.4753 -75.4827 299° West 427 491 28,800 1,380 Climbing FlightAware ADS-B
11:07PM 41.4848 -75.5056 299° West 428 493 29,000 1,140 Climbing FlightAware ADS-B
11:07PM 41.4946 -75.5403 291° West 428 493 29,300 1,260 Climbing FlightAware ADS-B
11:08PM 41.5058 -75.5860 288° West 431 496 29,700 1,200 Climbing FlightAware ADS-B
11:08PM 41.5271 -75.6630 290° West 435 501 30,300 1,620 Climbing FlightAware ADS-B
11:09PM 41.5496 -75.7422 291° West 429 494 31,400 2,160 Climbing FlightAware ADS-B
11:09PM 41.5706 -75.8144 291° West 424 488 32,500 2,040 Climbing FlightAware ADS-B
11:10PM 41.5921 -75.8908 291° West 418 481 33,500 1,860 Climbing FlightAware ADS-B
11:10PM 41.6133 -75.9659 291° West 415 478 34,400 1,800 Climbing FlightAware ADS-B
11:11PM 41.6340 -76.0394 291° West 410 472 35,400 1,800 Climbing FlightAware ADS-B
11:11PM 41.6559 -76.1170 291° West 404 465 36,300 1,500 Climbing FlightAware ADS-B
11:12PM 41.6750 -76.1851 291° West 404 465 37,000 1,200 Climbing FlightAware ADS-B
11:12PM 41.6965 -76.2620 291° West 404 465 37,600 780 Climbing FlightAware ADS-B
11:13PM 41.7251 -76.3646 291° West 404 465 38,000 300 Climbing FlightAware ADS-B
11:14PM 41.7458 -76.4390 290° West 404 465 38,000  Level FlightAware ADS-B
11:14PM 41.7669 -76.5152 290° West 408 470 38,000  Level FlightAware ADS-B
11:15PM 41.7870 -76.5885 290° West 408 470 38,000  Level FlightAware ADS-B
11:15PM 41.8100 -76.6715 290° West 407 468 38,000  Level FlightAware ADS-B
11:16PM 41.8310 -76.7490 290° West 408 470 38,000  Level FlightAware
11:16PM 41.8580 -76.8460 291° West 410 472 38,000  Level FlightAware
11:17PM 41.8860 -76.9470 290° West 411 473 38,000  Level FlightAware
11:18PM 41.9120 -77.0470 289° West 416 479 38,000  Level FlightAware
11:19PM 41.9280 -77.1510 282° West 424 488 38,000  Level FlightAware
11:19PM 41.9390 -77.2660 277° West 429 494 38,000  Level FlightAware
11:20PM 41.9480 -77.3850 276° West 434 499 38,000  Level FlightAware
11:21PM 41.9560 -77.4910 276° West 436 502 38,000  Level FlightAware
11:21PM 41.9640 -77.6110 275° West 439 505 38,000  Level FlightAware
11:22PM 41.9710 -77.7070 276° West 440 506 38,000  Level FlightAware
11:23PM 41.9790 -77.8190 276° West 442 509 38,000  Level FlightAware
11:24PM 41.9880 -77.9550 275° West 443 510 38,000  Level FlightAware
11:24PM 41.9960 -78.0680 275° West 446 513 38,000  Level FlightAware
11:25PM 42.0080 -78.2500 275° West 449 517 38,000  Level FlightAware
11:26PM 42.0150 -78.3690 275° West 451 519 38,000  Level FlightAware
11:27PM 42.0230 -78.4980 275° West 452 520 38,000  Level FlightAware
11:27PM 42.0300 -78.5990 275° West 453 521 38,000  Level FlightAware
11:28PM 42.0370 -78.7310 274° West 453 521 38,000  Level FlightAware
11:29PM 42.0440 -78.8510 275° West 452 520 38,000  Level FlightAware
11:30PM 42.0510 -78.9710 275° West 451 519 38,000  Level FlightAware
11:30PM 42.0580 -79.0880 275° West 450 518 38,000  Level FlightAware
11:31PM 42.0650 -79.2120 274° West 448 516 38,000  Level FlightAware
11:32PM 42.0710 -79.3200 274° West 446 513 38,000  Level FlightAware
11:32PM 42.0780 -79.4350 275° West 445 512 38,000  Level FlightAware
11:33PM 42.0840 -79.5500 274° West 446 513 38,000  Level FlightAware
11:34PM 42.0900 -79.6730 274° West 445 512 38,000  Level FlightAware
11:34PM 42.0960 -79.7860 274° West 444 511 38,000  Level FlightAware
11:35PM 42.1040 -79.8880 276° West 447 514 38,000  Level FlightAware
11:36PM 42.1080 -80.0210 272° West 444 511 38,000  Level FlightAware
11:37PM 42.1190 -80.1580 276° West 444 511 38,000  Level FlightAware
11:37PM 42.1200 -80.2680 271° West 440 506 38,000  Level FlightAware
11:38PM 42.1300 -80.3870 277° West 442 509 38,000  Level FlightAware
11:39PM 42.1340 -80.4690 274° West 440 506 38,000  Level FlightAware
11:40PM 42.1410 -80.6080 274° West 442 509 38,000  Level FlightAware
11:40PM 42.1480 -80.7430 274° West 440 506 38,000  Level FlightAware
11:41PM 42.1540 -80.8870 273° West 441 507 38,000  Level FlightAware
11:42PM 42.1600 -81.0070 274° West 442 509 38,000  Level FlightAware
11:43PM 42.1650 -81.1180 274° West 441 507 38,000  Level FlightAware
11:43PM 42.1700 -81.2390 273° West 440 506 38,000  Level FlightAware
11:44PM 42.1760 -81.3550 274° West 441 507 38,000  Level FlightAware
11:45PM 42.1800 -81.4680 273° West 442 509 38,000  Level FlightAware
11:45PM 42.1850 -81.5770 274° West 443 510 38,000  Level FlightAware
11:46PM 42.1900 -81.6950 273° West 444 511 38,000  Level FlightAware
11:47PM 42.1940 -81.8050 273° West 447 514 38,000  Level FlightAware
11:47PM 42.1980 -81.9230 273° West 449 517 38,000  Level FlightAware
11:48PM 42.2040 -82.0790 273° West 451 519 38,000  Level FlightAware
11:49PM 42.2080 -82.1940 273° West 453 521 38,000  Level FlightAware
11:50PM 42.2130 -82.3230 273° West 455 524 38,000  Level FlightAware
11:51PM 42.2170 -82.4460 273° West 458 527 38,000  Level FlightAware
11:51PM 42.2200 -82.5610 272° West 460 529 38,000  Level FlightAware
11:52PM 42.2240 -82.6810 273° West 460 529 38,000  Level FlightAware
11:53PM 42.2230 -82.6680 96° East 460 529 38,000  Level FlightAware
11:53PM 42.2310 -82.9220 273° West 460 529 38,000  Level FlightAware
11:54PM 42.2220 -83.0600 265° West 456 525 38,000  Level FlightAware
11:55PM 42.2370 -83.2030 278° West 460 529 38,000  Level FlightAware
11:56PM 42.2270 -83.3260 264° West 458 527 38,000  Level FlightAware
11:56PM 42.2410 -83.4420 279° West 460 529 38,000  Level FlightAware
11:57PM 42.2420 -83.4480 283° West 460 529 38,000  Level FlightAware
11:58PM 42.2350 -83.7280 268° West 459 528 38,000  Level FlightAware
11:59PM 42.2380 -83.8480 272° West 459 528 38,000  Level FlightAware
11:59PM 42.2400 -83.9720 271° West 459 528 38,000  Level FlightAware
12:00AM 42.2420 -84.0660 272° West 460 529 38,000  Level FlightAware
12:02AM 42.2430 -84.1110 272° West 459 528 38,000  Level FlightAware
12:02AM 42.2500 -84.4840 272° West 459 528 38,000  Level FlightAware
12:03AM 42.2510 -84.6160 271° West 459 528 38,000  Level FlightAware
12:04AM 42.2510 -84.7270 270° West 460 529 38,000  Level FlightAware
12:05AM 42.2510 -84.8500 270° West 461 531 38,000  Level FlightAware
12:05AM 42.2510 -84.9820 270° West 461 531 38,000  Level FlightAware
12:06AM 42.2510 -85.1150 270° West 461 531 38,000  Level FlightAware
12:07AM 42.2520 -85.2270 271° West 459 528 38,000  Level FlightAware
12:07AM 42.2530 -85.3440 271° West 458 527 38,000  Level FlightAware
12:08AM 42.2530 -85.4700 270° West 456 525 38,000  Level FlightAware
12:09AM 42.2540 -85.5850 271° West 454 522 38,000  Level FlightAware
12:09AM 42.2540 -85.6850 270° West 452 520 38,000  Level FlightAware
12:10AM 42.2540 -85.8150 270° West 450 518 38,000  Level FlightAware
12:11AM 42.2530 -85.9850 270° West 447 514 38,000  Level FlightAware
12:12AM 42.2530 -86.0960 270° West 447 514 38,000  Level FlightAware
12:13AM 42.2520 -86.2210 269° West 445 512 38,000  Level FlightAware
12:13AM 42.2510 -86.3340 269° West 444 511 38,000  Level FlightAware
12:14AM 42.2510 -86.4550 270° West 444 511 38,000  Level FlightAware
12:15AM 42.2500 -86.5610 269° West 443 510 38,000 -660 Level FlightAware
12:15AM 42.2490 -86.6840 269° West 439 505 37,100 -1,740 Descending FlightAware
12:16AM 42.2480 -86.7960 269° West 434 499 35,600 -2,400 Descending FlightAware
12:17AM 42.2470 -86.9130 269° West 431 496 33,800 -2,460 Descending FlightAware
12:17AM 42.2460 -87.0210 269° West 425 489 32,200 -2,820 Descending FlightAware
12:18AM 42.2450 -87.1320 269° West 412 474 29,900 -3,600 Descending FlightAware
12:19AM 42.2430 -87.2430 269° West 399 459 27,000 -3,360 Descending FlightAware
12:20AM 42.2420 -87.3420 269° West 388 447 25,200 -2,460 Descending FlightAware
12:20AM 42.2400 -87.4490 269° West 381 438 23,600 -2,220 Descending FlightAware
12:21AM 42.2390 -87.5460 269° West 376 433 22,100 -2,160 Descending FlightAware
12:22AM 42.2370 -87.6410 268° West 369 425 20,700 -2,160 Descending FlightAware
12:22AM 42.2350 -87.7360 268° West 364 419 19,200 -2,220 Descending FlightAware
12:23AM 42.2330 -87.8330 268° West 359 413 17,600 -2,100 Descending FlightAware
12:24AM 42.2320 -87.9210 269° West 354 407 16,300 -1,260 Descending FlightAware
12:24AM 42.2300 -88.0240 269° West 352 405 15,800 -300 Descending FlightAware
12:25AM 42.2280 -88.1130 268° West 354 407 15,800 -180 Level FlightAware
12:26AM 42.2250 -88.2310 268° West 349 402 15,600 -1,320 Descending FlightAware
12:27AM 42.2230 -88.3250 268° West 363 418 14,000 -1,320 Descending FlightAware
12:27AM 42.2210 -88.4250 268° West 366 421 13,800 -180 Descending FlightAware
12:28AM 42.2190 -88.5210 268° West 365 420 13,800 -1,020 Level FlightAware
12:29AM 42.2160 -88.6140 268° West 346 398 12,400 -1,800 Descending FlightAware
12:30AM 42.2060 -88.6980 261° West 298 343 11,300 -1,980 Descending FlightAware
12:30AM 42.1890 -88.7730 253° West 284 327 9,600 -2,520 Descending FlightAware
12:31AM 42.1790 -88.8200 254° West 273 314 8,400 -2,400 Descending FlightAware
12:31AM 42.1690 -88.8630 253° West 265 305 7,400 -2,340 Descending FlightAware
12:32AM 42.1590 -88.9070 253° West 261 300 6,300 -2,460 Descending FlightAware
12:32AM 42.1460 -88.9510 248° West 254 292 5,100 -2,460 Descending FlightAware
12:32AM 42.1400 -88.9610 231° Southwest 252 290 4,800 -1,740 Descending FlightAware
12:33AM 42.1160 -88.9940 226° Southwest 234 269 4,000 -1,380 Descending FlightAware
12:33AM 42.0950 -89.0200 223° Southwest 208 239 3,500 -840 Descending FlightAware
12:34AM 42.0780 -89.0490 232° Southwest 185 213 3,200 -900 Descending FlightAware
12:34AM 42.0840 -89.0730 289° West 179 206 2,700 -1,320 Descending FlightAware
12:35AM 42.1050 -89.0950 322° Northwest 182 209 2,000 -1,200 Descending FlightAware
12:35AM 42.1160 -89.1000 341° North 187 215 1,900 -780 Descending FlightAware
12:36AM 42.1510 -89.0960 North 162 186 1,300 -840 Descending FlightAware
12:36AM 42.1710 -89.0930 North 137 158 900 -720 Descending FlightAware
12:36AM 42.1840 -89.0910 North 128 147 700 60 Descending FlightAware
12:37AM 42.2042 -89.0914 North 174 200 1,000 480 Climbing Chicago Center